Location: Observatoire
(46.1952°N, 5.3391°E)
Time: 22:59:59
(UTC+01:00)

A-11 Canister half - Pass Details

Date: 17 February 2026
Orbit: 1525 x 1683 km, 47.3° (Epoch: 9 March)

Event Time Altitude Azimuth Distance (km) Brightness Sun altitude
Rises 16:20:24 0° 213° (SSW) 4,732 12.9 15.6°
Reaches altitude 10° 16:23:42 10° 206° (SSW) 3,731 12.4 15.2°
Maximum altitude 16:32:16 42° 140° (SE) 2,079 9.9 14.0°
Drops below altitude 10° 16:40:44 10° 74° (ENE) 3,693 10.5 12.8°
Sets 16:43:58 0° 68° (ENE) 4,679 10.9 12.3°
